This demonstration page uses our WeatherBlox Daily Observations layout. Learn more.

38.88101, -77.10428

Hourly Observations for March 20, 2016

Temp ( °F °C ) Dew Point ( °F °C ) Humidity (%) Winds ( mph kmh ) Pressure ( in mb ) Visibility ( mi km ) Precip ( " mm )
12:52 am 00:52 Cloudy 39 4 32 0 75 75 NE 6 9 30.09 1019 10 16.09344 0 0
1:52 am 01:52 Cloudy 39 3.9 32 0 76 76 NNE 5 7 30.09 1019 10 16.09344 0 0
2:52 am 02:52 Cloudy 40 4.4 31 -0.6 70 70 N 3 6 30.09 1019 10 16.09344 0 0
3:52 am 03:52 Cloudy 39 3.9 34 1.1 82 82 N 3 6 30.06 1018 10 16.09344 0 0
4:52 am 04:52 Cloudy 39 4 34 1 81 81 NW 7 11 30.06 1018 10 16.09344 0 0
5:52 am 05:52 Cloudy 39 3.9 35 1.7 86 86 N 7 11 30.06 1018 8 12.874752 0 0
6:52 am 06:52 Cloudy 40 4.4 33 0.6 77 77 NNE 8 13 30.09 1019 10 16.09344 0 0
7:52 am 07:52 Cloudy 40 4.4 31 -0.6 70 70 NE 12 19 30.09 1019 10 16.09344 0 0
8:52 am 08:52 Cloudy 40 4.4 29 -1.7 65 65 NNE 12 19 30.09 1019 10 16.09344 0 0
10:52 am 10:52 Cloudy 43 6.1 30 -1.1 60 60 ENE 14 22 30.09 1019 10 16.09344 0 0
12:36 pm 12:36 Cloudy with Light Rain 42 5.6 30 -1.1 62 62 NE 13 20 30.06 1018 10 16.09344 0.001 0.001
12:52 pm 12:52 Cloudy 42 5.6 29 -1.7 60 60 NE 13 20 30.06 1018 10 16.09344 0.001 0.001
1:19 pm 13:19 Cloudy with Light Rain 42 5.6 30 -1.1 62 62 ENE 13 20 30.03 1017 10 16.09344 0.001 0.001
1:31 pm 13:31 Cloudy 41 5 31 -0.6 67 67 ENE 12 19 30.03 1017 10 16.09344 0.001 0.001
2:40 pm 14:40 Cloudy with Light Rain 41 5 30 -1 66 66 NNE 10 17 30.03 1017 10 16.09344 0 0
2:52 pm 14:52 Cloudy with Light Rain 41 5 31 -0.6 67 67 NE 12 19 30.03 1017 10 16.09344 0.001 0.001
3:38 pm 15:38 Cloudy 39 4 32 0 75 75 NNE 12 19 30 1016 10 16.09344 0 0
4:24 pm 16:24 Cloudy 41 5 30 -1 66 66 NE 12 19 30 1016 10 16.09344 0 0
4:52 pm 16:52 Cloudy with Light Rain 41 5 31 -0.6 67 67 NE 13 20 29.97 1015 10 16.09344 0.001 0.001
5:52 pm 17:52 Cloudy 41 5 30 -1.1 65 65 NE 12 19 29.97 1015 10 16.09344 0.001 0.001
6:52 pm 18:52 Cloudy 40 4.4 31 -0.6 70 70 ENE 10 17 29.97 1015 10 16.09344 0.001 0.001
7:52 pm 19:52 Cloudy with Light Rain 40 4.4 31 -0.6 70 70 NE 9 15 29.97 1015 10 16.09344 0.001 0.001
8:42 pm 20:42 Cloudy with Light Rain/Snow 39 4 30 -1 70 70 NE 10 17 29.97 1015 10 16.09344 0 0
8:52 pm 20:52 Cloudy 39 3.9 30 -1.1 70 70 NNE 10 17 30 1016 10 16.09344 0.001 0.001
9:28 pm 21:28 Cloudy with Light Rain/Snow 39 4 30 -1 70 70 N 10 17 30 1016 10 16.09344 0 0
9:52 pm 21:52 Cloudy with Light Rain/Snow 39 3.9 31 -0.6 73 73 N 10 17 30 1016 10 16.09344 0.001 0.001
10:52 pm 22:52 Cloudy with Light Rain/Snow 38 3.3 31 -0.6 76 76 NNE 12 19 30 1016 10 16.09344 0.001 0.001
11:52 pm 23:52 Cloudy with Light Rain/Snow 37 2.8 32 0 82 82 N 6 9 29.97 1015 10 16.09344 0.001 0.001

Powered by AerisWeather